STARLINK-34090, 63976

Orbit data source: Space-Track

STARLINK-34090, 63976 is a payload satellite owned by SpaceX/Seattle (US) in LEO that was launched on Tue, 13 May 2025 UTC via an FALCON 9 launch vehicle from the Air Force Eastern Test Range (AFETR). Payload-class satellites include a variety of spacecraft equipped with specific instruments for various scientific and technological missions. These include communications satellites like Starlink; space stations such as the ISS; scientific satellites like the Hubble; Earth observation satellites from companies like Planet Labs, Umbra, and HawkEye 360; GPS; miniature CubeSats for education and research; and military/defense satellites.

Loading next visibility...
Identifier
63976, 2025-099AA
Orbit
LEO
Country
Flag of USUS
Related business
Manufacturer
SpaceX/Seattle
Mission
Operational Commercial Communications
Bus & Motor
STARLINK V2MO, Unknown motor
Mass
575 kg wet, ~530 kg dry
Launch date (UTC)
2025-05-13 (7 months ago)
Launch vehicle
FALCON 9
Launch site
Air Force Eastern Test Range (AFETR)
Object type
Payload
Rocket body
Debris
Shape & HBR
Box + 2 Pan, 17.7 m
Radar Cross Section
36.964 m², Large (>1 m²)

Expand to show TLE details & history
Last TLE update: 13 hours ago

TLE from 13 hours ago
0 STARLINK-34090
1 63976U 25099AA  25346.91007401  .00038694  00000-0  14093-2 0  9997
2 63976  42.9982 302.9060 0000707 280.0162  80.0610 15.27555734 34017
Epoch: 2025-12-12T21:50Z
TLE epoch observation values (Epoch: 2025-12-12T21:50:30.394Z)
Latitude
-0°
Longitude
-106.56557°
Altitude
482.813 km
Speed
7.626 km/s
True Right ascension
20h 11m 37s
True Declination
0° 00' 00"
Sunlit
Object was in daylight at epoch
Visualization orbit readout
Latitude
Unknown
Longitude
Unknown
Altitude
Unknown
Speed
Unknown
Apparent Right ascension
Unknown
Apparent Declination
Unknown
Sunlit
N/A
Visualization observer readout
Local Sidereal Time
09:41:58
Azimuth
Unknown
Elevation
Unknown
Doppler factor
Unknown
Orbital elements
Apogee altitude
485.552 km
Perigee altitude
484.582 km
Semi-major axis
6,863.204 km
Eccentricity
0.00007
Inclination
42.9982°
RAAN
302.906°
Arg. of periapsis
280.0162°
True anomaly
80.06898°
Mean anomaly
80.061°
Eccentric anomaly
80.06499°
Mean motion
3.81727 °/min
Orbital period
94.31 mins
BSTAR
0.0014093
Loading maneuver chart data...
Computing Atmospheric mass density...
Loading historical data...
Loading historical data...
Loading historical data...
Loading historical data...
Loading historical data...
Loading historical data...
Loading historical data...

Documentation

Showing up to 5 results
|